Location: Detroit
(42.3310°N, 83.0460°W)
Time: 11:12:49
(UTC-05:00)

Tiros 1 despin weight - Pass Details

Date: 06 December 2023
Orbit: 581 x 624 km, 48.2° (Epoch: 01 March)

Event Time Altitude Azimuth Distance (km) Brightness Sun altitude
Rises 19:05:16 0° 258° (WSW) 2,802 ? -22.5°
Reaches altitude 10° 19:07:35 10° 263° (W) 1,899 ? -22.9°
Maximum altitude 19:11:51 55° 342° (NNW) 702 ? -23.7°
Enters shadow 19:11:57 55° 347° (NNW) 703 ? -23.7°
